Total_Precipitation_Accumulation
1.22 1.11 1.78 1.71 1.48 1.29 1.19 1.17 1.17 1.25 1.33 1.26 1.11 0.94 0.78 0.72 0.72 0.74 0.79 0.76 0.70 0.68 0.72 0.76 0.75 0.72 0.64 0.59 0.66 0.79 0.93 0.96 0.89 0.86 0.95 1.06 1.09 1.16 1.39 1.59 1.65 1.77 1.69
0.87 0.98 1.61 1.56 1.38 1.21 1.16 1.20 1.18 1.13 1.12 1.13 1.11 0.98 0.85 0.71 0.70 0.72 0.69 0.70 0.66 0.67 0.67 0.69 0.76 0.75 0.65 0.65 0.76 0.90 0.95 0.98 0.90 0.92 1.15 1.26 1.26 1.31 1.40 1.52 1.65 1.78 1.73
0.83 0.88 1.22 1.46 1.40 1.26 1.17 1.14 1.13 1.09 1.07 1.08 1.06 1.05 0.91 0.78 0.68 0.67 0.65 0.64 0.65 0.65 0.67 0.67 0.71 0.70 0.69 0.74 0.87 0.96 0.94 0.99 1.06 1.16 1.49 1.82 1.48 1.33 1.30 1.44 1.48 1.53 1.59
0.76 0.85 1.15 1.51 1.43 1.34 1.29 1.28 1.24 1.12 1.03 1.03 0.96 0.93 0.89 0.84 0.74 0.74 0.76 0.68 0.67 0.66 0.66 0.63 0.63 0.68 0.72 0.79 0.92 0.90 0.91 1.06 1.21 1.28 1.48 1.71 1.66 1.46 1.45 1.60 1.61 1.52 1.61
0.77 0.84 1.27 1.64 1.47 1.36 1.35 1.44 1.37 1.23 1.10 0.99 0.92 0.90 0.88 0.90 0.86 0.90 0.82 0.76 0.76 0.74 0.72 0.75 0.75 0.80 0.84 0.90 0.90 0.91 1.04 1.20 1.29 1.20 1.30 1.50 1.96 1.84 1.56 1.70 1.79 1.63 1.55
0.67 0.72 1.12 1.60 1.46 1.32 1.29 1.41 1.34 1.19 1.17 1.08 1.02 0.99 0.98 1.03 1.12 1.00 0.91 0.90 0.84 0.83 0.79 0.83 0.85 0.93 0.98 0.97 0.99 1.06 1.21 1.32 1.22 1.29 1.37 1.50 1.87 1.90 1.53 1.53 1.58 1.54 1.47
0.67 0.68 0.94 1.39 1.36 1.22 1.19 1.28 1.26 1.20 1.21 1.09 1.03 1.04 1.05 1.09 1.23 1.29 1.15 1.04 0.99 0.96 0.92 0.90 0.88 0.88 0.93 1.03 1.06 1.12 1.25 1.22 1.14 1.38 1.37 1.60 1.73 1.74 1.44 1.39 1.44 1.51 1.64
0.77 0.67 0.78 1.18 1.24 1.16 1.18 1.22 1.22 1.16 1.08 0.96 0.97 1.02 1.04 1.05 1.17 1.30 1.25 1.15 1.12 1.07 1.06 1.03 1.00 0.96 0.97 1.00 1.12 1.18 1.22 1.08 0.87 1.12 1.31 1.62 1.91 1.81 1.42 1.33 1.42 1.49 1.74
1.12 0.95 0.87 0.91 0.95 1.06 1.15 1.17 1.29 1.32 1.11 0.96 0.91 0.92 0.92 0.94 0.99 1.08 1.13 1.10 1.07 1.09 1.10 1.08 1.06 1.04 1.08 1.06 1.07 1.15 1.17 1.09 0.99 1.06 1.05 1.56 1.95 1.85 1.57 1.41 1.34 1.39 1.62
1.13 1.09 1.01 1.01 0.96 0.96 1.01 1.19 1.43 1.54 1.35 1.08 0.95 0.88 0.90 0.88 0.88 0.99 1.00 1.07 1.10 1.15 1.20 1.22 1.18 1.12 1.19 1.19 1.20 1.20 1.15 0.97 0.84 0.90 1.09 1.52 2.03 1.91 1.67 1.41 1.21 1.15 1.35
1.03 1.04 0.99 1.00 1.02 1.11 1.12 1.19 1.44 1.59 1.54 1.17 0.96 0.94 0.85 0.71 0.84 0.92 0.88 1.13 1.24 1.33 1.34 1.35 1.28 1.18 1.18 1.20 1.28 1.27 1.01 0.81 0.82 0.92 1.21 1.78 2.23 2.17 1.78 1.45 1.26 1.17 1.17
0.87 0.88 0.88 0.88 0.85 0.87 0.92 1.24 1.46 1.35 1.42 1.14 1.08 1.00 0.92 0.96 1.01 0.86 0.84 1.10 1.27 1.38 1.35 1.30 1.29 1.20 1.07 0.92 0.95 0.99 0.80 0.68 0.72 0.85 1.30 1.96 2.38 2.38 1.99 1.60 1.32 1.18 1.16
0.75 0.67 0.62 0.66 0.64 0.65 0.74 0.90 1.18 1.42 1.47 1.42 1.36 1.26 1.20 1.11 0.95 0.84 0.84 0.90 1.02 1.12 1.06 1.12 1.13 1.03 0.97 0.92 0.90 0.82 0.75 0.65 0.72 0.85 1.39 1.97 2.37 2.44 2.17 1.70 1.38 1.31 1.39
0.80 0.78 0.63 0.54 0.55 0.54 0.57 0.69 0.92 1.14 1.28 1.29 1.21 1.11 1.30 1.24 1.01 0.90 0.98 0.99 1.00 1.08 1.24 1.28 1.22 1.12 1.03 0.93 0.93 0.86 0.81 0.79 0.77 0.88 1.37 1.66 2.08 2.27 2.32 2.06 1.69 1.47 1.41
0.83 0.88 0.76 0.58 0.48 0.50 0.52 0.58 0.64 0.88 1.02 1.02 1.16 1.12 1.16 1.15 1.02 0.93 0.95 1.09 1.06 1.10 1.29 1.40 1.25 1.18 1.20 1.14 1.09 1.06 1.02 0.94 0.94 0.94 1.20 1.41 1.68 2.09 2.47 2.44 2.11 1.67 1.54
0.74 0.77 0.72 0.63 0.58 0.53 0.50 0.50 0.53 0.58 0.74 0.76 0.79 0.77 0.96 1.09 1.07 1.08 0.99 1.06 1.21 1.26 1.26 1.29 1.27 1.20 1.17 1.20 1.18 1.21 1.20 1.01 1.03 1.04 1.13 1.14 1.24 1.55 2.14 2.50 2.26 1.87 1.76
0.61 0.62 0.65 0.66 0.68 0.64 0.62 0.61 0.57 0.58 0.61 0.69 0.77 0.77 0.89 1.00 1.07 1.09 0.98 1.01 1.18 1.36 1.33 1.28 1.23 1.25 1.11 1.10 1.22 1.30 1.30 1.20 1.19 1.21 1.16 1.13 1.04 1.20 1.61 2.18 2.33 2.14 2.06
0.47 0.45 0.53 0.55 0.60 0.64 0.67 0.69 0.65 0.69 0.70 0.68 0.74 0.73 0.76 0.92 1.07 1.16 1.09 1.05 1.20 1.39 1.54 1.59 1.44 1.39 1.29 1.24 1.32 1.32 1.29 1.35 1.31 1.27 1.24 1.24 1.24 1.11 1.18 1.46 1.84 2.16 2.28
0.36 0.33 0.37 0.43 0.48 0.55 0.62 0.69 0.69 0.72 0.86 0.94 0.84 0.71 0.76 0.89 1.01 1.21 1.30 1.25 1.28 1.44 1.50 1.51 1.54 1.44 1.43 1.38 1.29 1.25 1.22 1.34 1.40 1.23 1.21 1.24 1.35 1.31 1.19 1.02 1.15 1.42 1.86
0.31 0.29 0.31 0.38 0.39 0.41 0.52 0.67 0.76 0.73 0.83 1.05 1.09 1.08 1.11 1.17 1.22 1.37 1.47 1.46 1.46 1.52 1.50 1.62 1.82 1.64 1.47 1.48 1.37 1.23 1.17 1.22 1.30 1.32 1.34 1.30 1.37 1.33 1.24 1.07 1.04 0.89 1.14
0.26 0.24 0.28 0.34 0.36 0.38 0.45 0.55 0.65 0.75 0.93 1.14 1.20 1.27 1.41 1.43 1.44 1.57 1.68 1.71 1.64 1.56 1.62 1.79 2.16 2.04 1.69 1.53 1.57 1.42 1.27 1.21 1.29 1.27 1.36 1.45 1.38 1.31 1.36 1.27 1.09 0.97 0.86
0.18 0.17 0.22 0.31 0.39 0.44 0.50 0.64 0.78 1.02 1.14 1.28 1.43 1.42 1.45 1.51 1.54 1.60 1.82 1.93 1.86 1.85 1.95 1.99 2.23 2.38 2.10 1.90 1.91 2.06 1.83 1.61 1.28 1.05 1.14 1.23 1.26 1.31 1.30 1.33 1.22 1.06 1.01
0.15 0.18 0.23 0.36 0.56 0.75 0.85 1.08 1.34 1.59 1.68 1.61 1.61 1.66 1.64 1.66 1.73 1.71 1.82 2.02 1.99 1.95 2.01 2.20 2.49 2.78 2.69 2.42 2.23 2.38 2.13 1.86 1.70 1.21 0.98 1.05 1.16 1.29 1.31 1.39 1.37 1.25 1.18
0.20 0.29 0.45 0.67 0.97 1.22 1.36 1.54 1.75 1.86 1.89 1.83 1.85 1.83 1.81 1.72 1.66 1.66 1.79 1.99 2.14 2.22 2.28 2.34 2.35 2.69 2.92 2.75 2.61 2.31 2.02 1.87 1.97 1.74 1.25 1.02 1.09 1.16 1.23 1.26 1.37 1.40 1.36
0.47 0.65 0.94 1.19 1.43 1.59 1.64 1.72 1.91 2.06 2.21 2.23 2.12 1.97 1.85 1.82 1.75 1.67 1.72 1.79 1.83 1.93 2.06 2.17 2.25 2.48 2.65 2.78 2.75 2.56 2.30 2.14 1.72 1.70 1.70 1.46 1.20 0.99 1.03 1.17 1.36 1.41 1.40
0.90 1.08 1.28 1.42 1.56 1.56 1.57 1.62 1.74 1.92 2.08 2.11 2.13 2.09 1.96 1.83 1.73 1.63 1.58 1.67 1.69 1.70 1.84 1.95 2.05 2.30 2.47 2.59 2.65 2.55 2.44 2.38 2.13 1.87 1.70 1.66 1.50 1.19 1.02 1.03 1.14 1.25 1.32